Simultaneous Nadir Overpasses (SNOs) Predictions

Prediction of SNOs between AQUA and GOES-15 Satellite Orbit:

Table of predicted SNOs for the next 14.0 days since TLE Epoch: 7/5/2019
Index Date Time (AQUA) AQUA Lat,Lon GOES-15 Lat,Lon Distance(km) Time Diff (sec)
1 07/07/2019 22:04:07 0.25,-127.17 0.14,-127.62 51.04 80
2 07/09/2019 21:51:55 0.88,-124.22 0.14,-127.54 378.90 80
3 07/10/2019 10:13:10 0.25,-129.37 -0.16,-127.53 209.31 80
4 07/12/2019 10:00:58 -0.38,-126.41 -0.16,-127.45 117.86 80
5 07/12/2019 22:22:21 -0.71,-131.60 0.18,-127.41 476.67 80
6 07/14/2019 09:48:46 -1.01,-123.45 -0.16,-127.36 444.53 80
7 07/14/2019 22:10:09 -0.08,-128.64 0.19,-127.32 149.95 80
8 07/16/2019 21:57:56 0.51,-125.67 0.19,-127.23 176.41 80
9 07/17/2019 10:19:12 0.58,-130.84 -0.21,-127.22 411.37 80
10 07/19/2019 10:07:00 -0.06,-127.88 -0.21,-127.13 85.31 80




NCC Satellite Simultaneous Nadir Overpasses (SNOs) Prediction Service
